{"data":{"norad_id":53073,"intl_designator":"2022-077AG","name":"STARLINK-4346","alt_names":[],"object_type":"PAYLOAD","status":"ACTIVE","operator":null,"country":"US","launch_date":"2022-07-11","launch_site_code":"AFWTR","launch_vehicle":null,"mission":null,"orbit_class":"UNKNOWN","rcs_meters":null,"size_class":null,"mass_kg":null,"dimensions":null,"purposes":["comms"],"wikipedia_slug":null,"has_3d_model":false,"image_url":null,"decayed_at":null,"tle_current":{"epoch":"2026-05-25T01:56:30.490080Z","epoch_age_seconds":62055,"freshness":"FRESH","line1":"1 53073U 22077AG  26145.08090845  .00008512  00000+0  37532-3 0  9996","line2":"2 53073  97.6370 334.2680 0004511 329.9393  30.1583 15.22040537212911","mean_motion":15.22040537,"eccentricity":0.0004511,"inclination_deg":97.637,"raan_deg":334.268,"arg_perigee_deg":329.9393,"mean_anomaly_deg":30.1583,"bstar":0.00037532,"rev_number":21291,"period_min":94.609832326693,"perigee_km":496.5839419569,"apogee_km":502.789114344,"semimajor_km":6877.8235281505,"source":"CELESTRAK","updated_at":"2026-05-25T13:38:17.312156Z"}}}